Regional Weather Roundup
Issued by NWS

Home | Current Version | Previous Version | Text Only | Print | Product List | Glossary On
Versions: 1 2 3 4 5 6 7 8 9 10 11 12 13 14 15 16 17 18 19 20 21 22 23 24 25 26 27 28 29 30 31 32 33 34 35 36 37 38 39 40 41 42 43 44 45 46 47 48 49 50
000
ASUS43 KLSX 310707
RWRMO

WEATHER SUMMARY FOR MISSOURI
NATIONAL WEATHER SERVICE SPRINGFIELD MO
200 AM CDT FRI JUL 31 2015

NOTE: "FAIR" INDICATES FEW OR NO CLOUDS BELOW 12,000 FEET WITH NO
       SIGNIFICANT WEATHER AND/OR OBSTRUCTIONS TO VISIBILITY.
       CURRENT SKY AND/OR WEATHER CONDITIONS ARE NOT AVAILABLE FOR
       CHILLICOTHE AND FARMINGTON.

MOZ001>031-035>038-043-044-053-054-310800-
...NORTHERN AND WESTERN MISSOURI...

CITY           SKY/WX    TMP DP  RH WIND       PRES   REMARKS
KANSAS CTY INT PTCLDY    71  59  65 S5        30.17S
KANSAS C DTWN  CLEAR     70  67  90 NW3       30.16S
LEE`S SUMMIT   CLEAR     68  61  78 SE3       30.18S
ST JOSEPH      PTCLDY    67  65  93 CALM      30.16S
CHILLICOTHE      N/A     68  67  96 CALM      30.17S
KIRKSVILLE     CLEAR     70  63  78 W5        30.16R

$$
MOZ066>068-077>081-088>096-101>105-310800-
...SOUTHWEST MISSOURI...

CITY           SKY/WX    TMP DP  RH WIND       PRES   REMARKS
SPRINGFIELD    PTCLDY    69  62  78 CALM      30.17S
JOPLIN         CLOUDY    73  65  75 E5        30.15F

$$
MOZ032>034-039>042-045>050-055>058-069>072-310800-
...CENTRAL MISSOURI...

CITY           SKY/WX    TMP DP  RH WIND       PRES   REMARKS
COLUMBIA       CLEAR     71  66  84 W6        30.16F
JEFFERSON CITY CLEAR     67  65  93 CALM      30.15S
ROLLA          CLEAR     67  63  87 CALM      30.16S FOG
SEDALIA        CLEAR     70  62  76 CALM      30.18S
WHITEMAN AFB   CLEAR     67  63  89 CALM      30.16S
WARRENSBURG    CLEAR     64  64 100 CALM      30.16S FOG
OSAGE BEACH    CLEAR     64  63  94 CALM      30.17F

$$
MOZ051-052-059>065-310800-
...EAST CENTRAL MISSOURI...

CITY           SKY/WX    TMP DP  RH WIND       PRES   REMARKS
ST LOUIS INTL  CLEAR     75  65  70 W5        30.13S
SPIRIT OF STL  CLEAR     68  67  96 SW3       30.12S
ST CHARLES     CLEAR     71  68  90 CALM      30.11S

$$
MOZ072>076-082>087-097>100-106>115-310800-
...SOUTH CENTRAL AND SOUTHEAST MISSOURI...

CITY           SKY/WX    TMP DP  RH WIND       PRES   REMARKS
CAPE GIRARDEAU CLEAR     68  66  93 W5        30.10F
FARMINGTON     CLEAR     64  63  94 CALM      30.19S
POPLAR BLUFF   CLEAR     68  66  93 NW3       30.10F
WEST PLAINS    CLEAR     65  62  90 CALM      30.19S

$$



USA.gov is the U.S. government's official web portal to all federal, state and local government web resources and services.